Tracking 29892 objects as of 21-Nov-2024
HD Live streaming from Space Station
objects crossing your sky now

STARLINK-1174

Track STARLINK-1174 now!
10-day predictions
STARLINK-1174 is classified as:


NORAD ID: 45075
Int'l Code: 2020-006AH
Perigee: 553.5 km
Apogee: 555.0 km
Inclination: 53.1 °
Period: 95.6 minutes
Semi major axis: 6925 km
RCS: Unknown
Launch date: January 29, 2020
Source: United States (US)
Launch site: AIR FORCE EASTERN TEST RANGE (AFETR)
Your satellite tracking list
Your tracking list is empty




NASA's NSSDC Master Catalog

Two Line Element Set (TLE):
1 45075U 20006AH  24325.78899093  .00021414  00000-0  14511-2 0  9994
2 45075  53.0534 234.0370 0001040  78.9764 281.1342 15.06426866265310
Source of the keplerian elements: AFSPC